Location: Fernhill
(41.0167°S, 175.6333°E)
Time: 09:28:16
(UTC+00:00)

USA 186 - Pass Details

Date: 08 November 2025
Orbit: 338 x 359 km, 97.0° (Epoch: 19 May)

Event Time Altitude Azimuth Distance (km) Brightness Sun altitude
Rises 09:36:13 0° 174° (S) 2,039 5.9 -23.2°
Reaches altitude 10° 09:38:07 10° 180° (S) 1,209 4.8 -23.4°
Enters shadow 09:38:53 17° 186° (S) 891 4.1 -23.5°
